Starlink 11365

operational
NORAD ID: 62886 Int'l Des: 2025-024 Owner: SPXS Country: US Constellation: starlink
LEOCIRCULAR

Starlink 11365について

説明を読み込み中...

リアルタイム位置

3D地球を読み込み中...

次回通過

高度履歴

Altitude vs Time

uPlot chart will show altitude changes over time

軌道要素

1 62886U 25024H 25353.91603531 .00206946 00000-0 15731-2 0 9995
2 62886 43.0011 302.0040 0002193 280.6586 79.4035 15.70889796 50924
Epoch: Dec 19, 2025 • Age: 8 hours

現在のステータス

高度 360.5 km
速度 7.70 km/s
衛星直下点 43.06°N, 153.63°W
打ち上げ日 Feb 4, 2025
運用期間 0.8 years
タイプ internet

技術仕様

分類 Payload
質量 960.00 kg
乾燥質量 910.00 kg
総質量 960.00 kg
長さ 0.30 m
直径 4.10 m
スパン 29.00 m
形状 Box + pan
製造者 SPXS
バスタイプ Starlink V2MD
フェーズステータス In Orbit
所有者/国 SPXS/US

大規模コンステレーション

Loading constellations...